Satellite-Ground Cal/Val Site Overpasses Predictions

Prediction of Satellite NPP Overpassing Cal/Val Site: Antarctic Dome C

Ground Cal/Val Site Location: Latitude: -75.10, Longitude: 123.35; Satellite-Ground Site NADIR distance within 100 km.

Table of predicted overpasses for the next 14.0 days since TLE Epoch: 3/9/2013
Interval Starting Time Ending Time Minimum Distance Time Minimum Distance (km)
1 03/10/2013 07:17:51 03/10/2013 07:18:10 03/10/2013 07:18:01 74.03
2 03/12/2013 15:00:09 03/12/2013 15:00:31 03/12/2013 15:00:20 62.41
3 03/13/2013 14:41:18 03/13/2013 14:41:44 03/13/2013 14:41:31 46.77
4 03/14/2013 07:43:01 03/14/2013 07:43:21 03/14/2013 07:43:11 71.37
5 03/15/2013 07:24:09 03/15/2013 07:24:36 03/15/2013 07:24:22 36.35
6 03/18/2013 14:47:39 03/18/2013 14:48:08 03/18/2013 14:47:53 11.04
7 03/20/2013 07:30:30 03/20/2013 07:30:59 03/20/2013 07:30:45 2.54


NCC Satellite Cal/Val Overpasses Prediction Service
